Regional Weather Roundup
Issued by NWS Wakefield, VA

Home | Current Version | Previous Version | Graphics & Text | Print | Product List | Glossary On
Versions: 1 2 3 4 5 6 7 8 9 10 11 12 13 14 15 16 17 18 19 20 21 22 23 24 25 26 27 28
000
ASUS41 KAKQ 010815
RWRAKQ

REGIONAL WEATHER ROUNDUP
NATIONAL WEATHER SERVICE WAKEFIELD VA
400 AM EDT SUN MAY 01 2016

Note: "fair" indicates few or no clouds below 12,000 feet with no
significant weather and/or obstructions to visibility. * = Denotes
station may not report precipitation (e.g., rain,snow,etc.),
thunder or fog.

VAZ042-051-052>054-056-010900-
NORTHERN VIRGINIA

CITY           SKY/WX    TMP DP  RH WIND       PRES   REMARKS
WASH NATIONAL  LGT RAIN  52  49  89 S8        30.15F
DULLES         LGT RAIN  52  50  93 S9        30.13F
FORT BELVOIR   LGT RAIN  52  50  93 SE5       30.14F
QUANTICO       LGT RAIN  54  50  86 S12       30.15F
FREDERICKSBRG* LGT RAIN  53  53 100 SE3       30.14F
STAFFORD*      RAIN      51  50  95 SE3       30.18F
WARRENTON      RAIN      53  48  84 SE3       30.12F
CULPEPER*      RAIN      53  53  99 S3        30.13F
MANASSAS*      CLOUDY    54  52  94 SE7       30.13F
LEESBURG*      RAIN      54  54 100 S9        30.13S
WINCHESTER     LGT RAIN  52  50  93 S10       30.08F
FRONT ROYAL*   CLOUDY    52  52 100 S3        30.07F
LURAY*         RAIN      52  52 100 SW8       30.08F
$$

VAZ048-049-060>072-079>083-010900-
CENTRAL AND SOUTH CENTRAL VIRGINIA

CITY           SKY/WX    TMP DP  RH WIND       PRES   REMARKS
RICHMOND       HVY RAIN  52  50  93 CALM      30.16R FOG
CHESTERFIELD*  CLOUDY    54  39  58 CALM      30.17R
PETERSBURG*    LGT RAIN  54  54 100 CALM      30.16R
HANOVER        RAIN      53  50  89 CALM      30.17R FOG
TAPPAHANNOCK*  CLOUDY    54  53  97 CALM      30.16S
QUINTON*       CLOUDY    53  51  92 NW5       30.16R
CHARLOTTSVILLE RAIN      53  51  93 S7        30.12S FOG
GORDONSVILLE*  CLOUDY    53  53 100 S6        30.13S FOG
ORANGE*        RAIN      54  54 100 CALM      30.15R
LOUISA*        RAIN      55  55 100 CALM      30.13R
BUMPASS*       CLOUDY    51  51  98 SE3       30.13F
FARMVILLE*     RAIN      55  55 100 NE3       30.11F
CREWE*         CLOUDY    52  52 100 E3        30.13F
FORT PICKETT*  NOT AVBL
CHASE CITY*    CLOUDY    54  52  94 CALM      30.12S
CLARKSVILLE*   CLOUDY    55  55 100 CALM      30.11S
SOUTH HILL*    CLOUDY    55  52  92 CALM      30.18S
LAWRENCEVILLE* CLOUDY    54  52  92 W5        30.14R
EMPORIA*       CLOUDY    54  50  87 E3        30.14S
$$

VAZ088>098-010900-
SOUTHEAST VIRGINIA

CITY           SKY/WX    TMP DP  RH WIND       PRES   REMARKS
NORFOLK        MOCLDY    55  49  80 SE5       30.13S
VIRGINIA BEACH MOCLDY    58  49  72 E7        30.13S
NORFOLK NAVAL  CLOUDY    56  51  84 E3        30.15R
WEST POINT*    CLOUDY    53  51  91 E3        30.16S
SALUDA*        CLOUDY    55  51  88 SE3       30.14F
NEWPORT NEWS   CLOUDY    55  51  86 E7        30.14R
LANGLEY AFB    MOCLDY    56  51  84 SE6       30.13S
FORT EUSTIS    CLOUDY    55  51  86 E2        30.12R
WILLIAMSBURG*  FAIR      55  54  94 CALM      30.14F
HR EXEC AP*    CLOUDY    55  50  82 CALM      30.15S
FRANKLIN*      CLOUDY    54  50  87 CALM      30.14S
US460-WAKEFLD  CLOUDY    54  50  86 CALM      30.13S
$$

VAZ020-022-025-037-045-010900-
WEST CENTRAL AND SOUTHWEST VIRGINIA

CITY           SKY/WX    TMP DP  RH WIND       PRES   REMARKS
STAUNTON*      LGT RAIN  55  55 100 S5        30.12S
WAYNESBORO*    CLOUDY    51  50  96 MISG      30.10F
HOT SPRINGS VA RAIN      48  48 100 SE7       30.08F VSB 1/4
LYNCHBURG      RAIN      53  53 100 CALM      30.13F
DANVILLE       CLOUDY    56  56 100 CALM      30.12R
SOUTH BOSTON*  CLOUDY    55  54  95 CALM      30.12S
MARTINSVILLE   RAIN      53  53 100 CALM      30.13S
ROANOKE        RAIN      54  53  97 SE6       30.11F
BLACKSBURG     LGT RAIN  52  52  99 E7        30.11F
DUBLIN*        DRIZZLE   54  54 100 E3        30.09S
MARION*        CLOUDY    56  53  91 NE10      30.08F
HILLSVILLE*    LGT RAIN  52  52 100 CALM      30.08F
RICHLANDS*     CLOUDY    56  55  97 N6        30.01S
WISE*          CLOUDY    59  59 100 S5        30.01S
ABINGDON*      FAIR      60  58  94 NE6       30.01F
$$

MDZ021>025-VAZ099-100-010900-
SOUTHERN MARYLAND AND THE DELMARVA PENINSULA

CITY           SKY/WX    TMP DP  RH WIND       PRES   REMARKS
PATUXENT RIVER CLOUDY    54  47  77 SE8       30.15S
BAY BRIDGE APT NOT AVBL
LEONARDTOWN    CLOUDY    52  46  82 SE3       30.16F
DOVER          LGT RAIN  50  49  95 SE6       30.16S
GEORGETOWN     CLOUDY    49  47  93 CALM      30.17S
EASTON         DRIZZLE  N/A N/A N/A CALM      30.19S
CAMBRIDGE      CLOUDY    48  45  87 CALM      30.15F
SALISBURY      CLOUDY    50  47  89 SE3       30.16F
OCEAN CITY     CLOUDY    50  47  89 E6        30.16F
WALLOPS ISLAND CLOUDY    53  47  79 E6        30.17S
ACCOMACK*      CLOUDY   N/A N/A N/A E3        30.15F
$$

NCZ012>017-030>032-010900-
NORTH CENTRAL AND EASTERN NORTH CAROLINA

CITY           SKY/WX    TMP DP  RH WIND       PRES   REMARKS
ROANOKE RAPIDS PTSUNNY   54  52  94 CALM      30.13S
RALEIGH        CLOUDY    60  56  86 CALM      30.12F
ELIZABETH CITY CLOUDY    56  53  90 E5        30.13S
AHOSKIE*       CLOUDY    54  51  90 SE3       30.13F
EDENTON*       CLOUDY    56  56 100 CALM      30.13F
CURRITUCK*     CLOUDY    57  53  85 SE3       30.14S
KILL DEVIL HLS CLOUDY    56  54  93 CALM      30.12R
MANTEO         NOT AVBL
CAPE HATTERAS  CLEAR     59  56  89 NE7       30.10S
TARBORO*       CLOUDY    57  54  88 SE5       30.14S
GOLDSBORO      NOT AVBL
WASHINGTON     CLOUDY    55  53  93 NE3       30.13S
GREENVILLE     CLOUDY    55  54  94 SE3       30.14S
NEW BERN       CLOUDY    60  57  89 NE3       30.12F
WILMINGTON     CLOUDY    65  63  93 E3        30.10S
$$

VAZ048-010900-
ELSEWHERE

CITY           SKY/WX    TMP DP  RH WIND       PRES   REMARKS
HARRISBURG PA  LGT RAIN  50  45  83 SE9       30.13S
BALTIMORE      LGT RAIN  49  46  90 SE5       30.14F
ANNAPOLIS      CLOUDY    52  45  77 MISG      30.15S
ANDREWS AFB    CLOUDY    50  48  94 SE8       30.14S
PHILADELPHIA   LGT RAIN  50  39  66 E3        30.19R
HENDERSON NC   CLOUDY    57  57 100 S5        30.11S
GREENSBORO     LGT RAIN  59  59 100 S8        30.10R FOG
ROCKY MOUNT    CLOUDY    57  54  89 CALM      30.14R
$$

VAZ100-010900-
MARINE

STATION/POSITION TIME  TEMP    WIND        PRES    WAVE   SWELL
                       AIR SEA DIR/SP/G            HT/PER HT/PER
                 (UTC) (F)     (DEG/KT/KT) (MB)    (FT/S) (FT/S)
BRANDYWINE LGT   0700   50     130/  9/ 10 1021.9F
CAPE MAY NJ      0700   50 57  110/  4/  5 1021.8F
LEWES DE         0700   50 56  130/  4/  5 1021.8F
15NM E FENWICK I 0750   51 51              1021.5F   4/ 8
OCEAN-CITY-INLET 0700   51 55   90/  4/  5 1021.2F
WACHAPREAGUE VA  0700   54 59  100/  6/  8 1021.0S
THOMAS POINT MD  0800   53 57  170/ 11/ 12 1022.3R
GOOSES REEF MD   0800   53 57  160/  8/ 10 1022.0F   1/ 2
COVE POINT MD    0700   52     160/  8/ 11 1021.6F
SOLOMONS ISLAND  0700   54 59  120/  9/ 11   N/A
BISHOPS HEAD MD  0700   53 58  110/  8/ 10 1020.7F
PINEY POINT MD   0700          150/ 12/ 14   N/A
POTOMAC MD       0800   55 58  140/ 10/ 12 1019.9F   2/ 3
CAMBRIDGE MD     0700   51 60  110/  5/  6 1020.7F
LEWISETTA VA     0700   55 59  150/  6/  7 1020.8F
RAPPAHANNOCK LGT 0700          100/  9/ 10 1021.5S
STINGRAY PT      0800   56 60  130/ 12/ 14 1020.9F   2/ 3
YORK RVR RNG VA  0700   56     140/ 13/ 15 1019.8F
YORKTOWN VA      0700   56 61  120/  8/ 11 1020.2F
JAMESTOWN VA     0800   56 65  100/  6/ 10   N/A     1
DOMINION TERM VA 0700   56     110/ 10/ 12 1020.0F
KIPTOPEKE VA     0700      59  120/  8/ 11   N/A
CHES BAY BRIDGE  0700   56 60  100/ 10/ 13 1019.9F
CAPE HENRY VA    0700   55     110/ 11/ 14   N/A
CHESAPEAKE LGHT  0700   54     100/ 12/ 13 1021.2F
WILLOUBY STN VA  0700   55     120/  9/ 10 1020.9F
CAPE HENRY BUOY  0712      55                N/A     4/11   2/11
CAPE CHARLES BUO 0726      56                N/A     4/10   3/10
OFFSHORE WE BUOY 0721      54                N/A     5/ 9   5/ 9
64NM E OF VA BCH 0750   55 53   80/  8/ 10 1019.7F   6/10   5/10
DUCK PIER NC     0700   56 67   80/ 12/ 14 1019.7F
44100 DUCK FRF   0724      54                N/A     5/10   2/11
44056 DUCK FRF   0711      59                N/A     4/11   2/11
OREGON INLET NC  0700   57 62   40/  9/ 11 1019.7F
HATTERAS NC      0700   61 68   70/  8/ 10 1019.0F
DIAMOND SHLS NC  0750   72 73  150/ 12/ 14 1019.1F   5/11   5/11
CAPE LOOKOUT NC  0800   65      60/ 11/ 11C1F1C2F2C3F3C4F4C5F5C6F6C7F7C8M1C9!



USA.gov is the U.S. government's official web portal to all federal, state and local government web resources and services.